[[{"header":{"parameterUnit":"m.s-1","parameterCategory":1,"la1":30.2991,"la2":30.254,"lo1":-89.0895,"lo2":-89.0444,"dy":0.0017,"dx":0.0017,"nx":28,"ny":28,"refTime":"2025-09-13T03:00:00:Z","depth":0,"parameterNumber":2,"parameterNumberName":"U-component_of_WINDS"},"data":[0,0,0,0,0,0,0,0,0,0,0,0,0,0,0,0,0,0,0,0,0,0,0,0,0,0,0,0,0,0,0,0,0,0,0,0,0,0,0,0,0,0,0,0,0,0,0,0,0,0,0,0,0,0,0,0,0,0,-1.1697,-1.1696,0,-1.1552,-1.155,-1.1549,-1.1479,-1.1479,-1.1479,-1.1479,-1.1328,-1.1324,-1.132,0,0,0,0,0,0,0,0,0,0,0,0,0,-1.1913,-1.1909,-1.1697,-1.1695,-1.1694,-1.1552,-1.155,-1.1548,-1.1479,-1.1479,-1.1479,-1.1479,-1.1329,-1.1324,-1.1319,0,0,0,0,0,0,0,0,0,0,0,0,0,-1.1799,-1.1908,-1.1698,-1.1642,-1.1636,-1.1552,-1.155,-1.1548,-1.1479,-1.1479,-1.1479,-1.1479,-1.1331,-1.1325,-1.1319,-1.1279,0,0,-1.13,-1.1297,0,0,0,0,0,0,0,0,-1.1805,-1.1791,-1.1652,-1.1646,-1.1639,-1.1534,-1.157,-1.1457,-1.1479,-1.1538,-1.1479,-1.1479,-1.1396,-1.1384,-1.1357,-1.1272,-1.1265,-1.1299,-1.1296,-1.1293,-1.1291,0,0,0,0,0,0,0,-1.1813,-1.1797,-1.164,-1.165,-1.1642,-1.1624,-1.1608,-1.1549,-1.1468,-1.1533,-1.1528,-1.1512,-1.1392,-1.1363,-1.1353,-1.1263,-1.1299,-1.1294,-1.129,-1.1288,-1.1138,-1.1138,0,0,0,0,0,0,-1.1831,-1.1804,-1.1644,-1.1635,-1.1724,-1.162,-1.1602,-1.1567,-1.1469,-1.1454,-1.1512,-1.1509,-1.1373,-1.136,-1.1347,-1.1294,-1.1293,-1.1287,-1.1284,-1.1138,-1.1138,-1.1138,0,0,0,0,0,0,-1.1835,-1.1817,-1.165,-1.1718,-1.1695,-1.1616,-1.1578,-1.1564,-1.1535,-1.1453,-1.1438,-1.1497,-1.1373,-1.1356,-1.1297,-1.1288,-1.1284,-1.1279,-1.1139,-1.1138,-1.1138,-1.1188,0,0,0,0,0,0,-1.1842,-1.1819,-1.1803,-1.1718,-1.1692,-1.1602,-1.1577,-1.1561,-1.1525,-1.152,-1.1435,-1.1421,-1.1372,-1.1306,-1.1291,-1.1279,-1.1274,-1.1139,-1.1139,-1.1138,-1.1187,-1.1189,-1.1192,0,0,0,0,0,-1.185,-1.1823,-1.1803,-1.1784,-1.1671,-1.1602,-1.1587,-1.1532,-1.1524,-1.1508,-1.1455,-1.1423,-1.1292,-1.1301,-1.1282,-1.1269,-1.1139,-1.1139,-1.1138,-1.1186,-1.1189,-1.1192,0,0,0,0,0,0,-1.1907,-1.181,-1.1787,-1.1732,-1.1676,-1.1591,-1.1568,-1.1537,-1.1481,-1.1479,-1.1413,-1.1394,-1.1341,-1.1299,-1.1311,-1.1226,-1.1213,-1.1208,-1.1255,-1.1257,-1.126,-1.1271,-1.1269,0,0,0,0,0,-1.1914,-1.1867,-1.1784,-1.1743,-1.1716,-1.1647,-1.1615,-1.1578,-1.1517,-1.1493,-1.1435,-1.1377,-1.1322,-1.1288,-1.1233,-1.1181,-1.1161,-1.1163,-1.1166,-1.1168,-1.1165,-1.1135,-1.1135,-1.1136,-1.1136,-1.1136,0,0,-1.1926,-1.1867,-1.1841,-1.1753,-1.1706,-1.1658,-1.1628,-1.1578,-1.1542,-1.1485,-1.1425,-1.1382,-1.1312,-1.1257,-1.1229,-1.122,-1.1161,-1.1167,-1.117,-1.1165,-1.1134,-1.1134,-1.1134,-1.1135,-1.1135,-1.1135,0,0,-1.1924,-1.1875,-1.1836,-1.1789,-1.1718,-1.1672,-1.1663,-1.1583,-1.1552,-1.1492,-1.1448,-1.1404,-1.1311,-1.1264,-1.1227,-1.121,-1.1178,-1.1193,-1.1206,-1.1177,-1.1177,-1.1177,-1.1171,-1.1169,-1.1191,-1.1191,-1.1191,0,-1.1948,-1.1876,-1.1819,-1.1773,-1.1735,-1.1683,-1.1643,-1.16,-1.1514,-1.1489,-1.1481,-1.1364,-1.1313,-1.1246,-1.1242,-1.1215,-1.1202,-1.1202,-1.1182,-1.1181,-1.118,-1.1173,-1.1171,-1.1193,-1.1193,-1.1193,-1.1192,0,-1.1909,-1.1859,-1.1836,-1.1756,-1.1716,-1.1672,-1.1609,-1.1576,-1.1543,-1.1498,-1.1438,-1.1376,-1.1308,-1.1289,-1.1256,-1.1218,-1.1214,-1.1195,-1.118,-1.1183,-1.1176,-1.1173,-1.1197,-1.1196,-1.1195,-1.1194,0,0,-1.1937,-1.1828,-1.1821,-1.1784,-1.1702,-1.1663,-1.1617,-1.1552,-1.1525,-1.1468,-1.1428,-1.1352,-1.1334,-1.1292,-1.1253,-1.1229,-1.1219,-1.1212,-1.1209,-1.1216,-1.1174,-1.1189,-1.1187,-1.1198,-1.1198,-1.1197,-1.118,0,-1.1924,-1.1841,-1.179,-1.1728,-1.1681,-1.1632,-1.1592,-1.1538,-1.1495,-1.1449,-1.1402,-1.1349,-1.1329,-1.1304,-1.1278,-1.1226,-1.121,-1.1227,-1.116,-1.1159,-1.1179,-1.1183,-1.1198,-1.1184,-1.1176,-1.1176,-1.1175,0,-1.1897,-1.1843,-1.1776,-1.1701,-1.1679,-1.1645,-1.1581,-1.1538,-1.1476,-1.1447,-1.1402,-1.1363,-1.1313,-1.1303,-1.1234,-1.1246,-1.1216,-1.1187,-1.1185,-1.1176,-1.1167,-1.1174,-1.1178,-1.1177,-1.117,-1.1171,-1.1171,0,-1.1925,-1.1835,-1.1783,-1.1754,-1.1664,-1.1642,-1.1603,-1.1541,-1.1505,-1.145,-1.1426,-1.1366,-1.1332,-1.1286,-1.1232,-1.123,-1.1168,-1.1154,-1.1142,-1.1144,-1.113,-1.1132,-1.113,-1.1112,-1.1112,-1.1112,-1.1112,0,-1.1914,-1.1876,-1.1795,-1.1763,-1.1719,-1.166,-1.1617,-1.1575,-1.152,-1.1479,-1.1433,-1.1395,-1.1326,-1.128,-1.1238,-1.1187,-1.1172,-1.1147,-1.1136,-1.1151,-1.1154,-1.1129,-1.1129,-1.1112,-1.1112,-1.1112,-1.1112,0,-1.1937,-1.1882,-1.1823,-1.1744,-1.1723,-1.1694,-1.1626,-1.1593,-1.1549,-1.1498,-1.1483,-1.1413,-1.1357,-1.1299,-1.1222,-1.1193,-1.1144,-1.1129,-1.1165,-1.1159,-1.1151,-1.1153,-1.1133,-1.1128,-1.1114,-1.1115,-1.1115,0,-1.1934,-1.1903,-1.1822,-1.1792,-1.1755,-1.1707,-1.1671,-1.1613,-1.1577,-1.1505,-1.1481,-1.1422,-1.1371,-1.1283,-1.1225,-1.1167,-1.115,-1.1147,-1.1141,-1.1157,-1.115,-1.1152,-1.1149,-1.1149,-1.115,-1.115,-1.1151,0,-1.1935,-1.1909,-1.186,-1.1801,-1.176,-1.171,-1.1659,-1.1637,-1.1569,-1.1531,-1.1474,-1.1435,-1.1358,-1.1299,-1.1234,-1.1194,-1.1161,-1.1153,-1.1148,-1.1162,-1.1185,-1.1172,-1.1171,-1.1154,-1.1153,-1.1153,-1.1153,-1.1153,-1.1944,-1.1915,-1.1853,-1.18,-1.1756,-1.171,-1.1675,-1.1628,-1.1579,-1.1512,-1.1481,-1.1424,-1.1363,-1.1272,-1.1233,-1.1188,-1.1178,-1.117,-1.1167,-1.1166,-1.117,-1.1193,-1.1175,-1.1175,-1.1175,-1.1175,-1.1175,0,-1.1942,-1.1901,-1.1852,-1.1783,-1.1741,-1.1715,-1.1658,-1.1624,-1.1575,-1.1521,-1.1473,-1.1408,-1.1351,-1.129,-1.123,-1.1205,-1.1189,-1.1191,-1.1192,-1.1184,-1.1182,-1.1193,-1.1206,-1.1206,-1.1206,-1.1206,-1.1206,-1.1206,-1.1936,-1.1886,-1.1853,-1.178,-1.1739,-1.1683,-1.1652,-1.1609,-1.1567,-1.1496,-1.1449,-1.141,-1.1354,-1.129,-1.1237,-1.122,-1.12,-1.1207,-1.1187,-1.1186,-1.1184,-1.1181,-1.1191,-1.1204,-1.1204,-1.1192,-1.1192,-1.1192]},{"header":{"parameterUnit":"m.s-1","parameterCategory":1,"la1":30.2991,"la2":30.254,"lo1":-89.0895,"lo2":-89.0444,"dy":0.0017,"dx":0.0017,"nx":28,"ny":28,"refTime":"2025-09-13T03:00:00:Z","depth":0,"parameterNumber":3,"parameterNumberName":"V-component_of_WINDS"},"data":[0,0,0,0,0,0,0,0,0,0,0,0,0,0,0,0,0,0,0,0,0,0,0,0,0,0,0,0,0,0,0,0,0,0,0,0,0,0,0,0,0,0,0,0,0,0,0,0,0,0,0,0,0,0,0,0,0,0,0.5923,0.5923,0,0.595,0.5951,0.5951,0.5979,0.598,0.598,0.5981,0.6006,0.6006,0.6006,0,0,0,0,0,0,0,0,0,0,0,0,0,0.5889,0.589,0.5923,0.5923,0.5923,0.595,0.5951,0.5951,0.5979,0.598,0.598,0.5981,0.6006,0.6006,0.6007,0,0,0,0,0,0,0,0,0,0,0,0,0,0.5909,0.589,0.5923,0.5941,0.5943,0.595,0.5951,0.5951,0.5979,0.598,0.598,0.5981,0.6006,0.6006,0.6007,0.5998,0,0,0.6008,0.6008,0,0,0,0,0,0,0,0,0.5908,0.591,0.5938,0.594,0.5942,0.5962,0.5948,0.5967,0.5979,0.5965,0.5981,0.5981,0.5991,0.5992,0.5996,0.5999,0.6,0.6008,0.6008,0.6009,0.6009,0,0,0,0,0,0,0,0.5906,0.5909,0.5934,0.5938,0.5941,0.5946,0.5949,0.5952,0.5974,0.5966,0.5969,0.5972,0.5992,0.5996,0.5997,0.6,0.6008,0.6008,0.6009,0.6009,0.5993,0.5993,0,0,0,0,0,0,0.5903,0.5908,0.5933,0.5934,0.5926,0.5946,0.595,0.5955,0.5974,0.5978,0.5971,0.5973,0.5995,0.5996,0.5998,0.5987,0.6009,0.6009,0.6009,0.5994,0.5993,0.5992,0,0,0,0,0,0,0.5902,0.5905,0.5932,0.5922,0.5926,0.5946,0.5951,0.5955,0.5959,0.5978,0.5982,0.5971,0.5995,0.5997,0.5997,0.5988,0.6009,0.601,0.5995,0.5994,0.5993,0.5965,0,0,0,0,0,0,0.5901,0.5904,0.5903,0.5921,0.5926,0.5932,0.5951,0.5955,0.596,0.5963,0.5979,0.5982,0.5996,0.5996,0.5997,0.5989,0.601,0.5996,0.5994,0.5993,0.5967,0.5963,0.596,0,0,0,0,0,0.59,0.5894,0.5902,0.5905,0.5924,0.5931,0.5934,0.595,0.5959,0.5957,0.5968,0.5982,0.5989,0.5996,0.5998,0.5989,0.5996,0.5995,0.5993,0.5968,0.5964,0.596,0,0,0,0,0,0,0.5873,0.5897,0.5907,0.5907,0.5917,0.5936,0.5933,0.5945,0.5952,0.5954,0.5973,0.5977,0.5973,0.5981,0.5989,0.598,0.5994,0.5993,0.5975,0.5971,0.5967,0.5965,0.601,0,0,0,0,0,0.5867,0.5872,0.5892,0.589,0.5895,0.5913,0.5917,0.5928,0.5939,0.5943,0.5955,0.5963,0.5967,0.597,0.5974,0.5968,0.597,0.5963,0.5959,0.5956,0.5955,0.5949,0.5945,0.5987,0.5987,0.5987,0,0,0.5856,0.5869,0.5871,0.5885,0.5894,0.5897,0.5916,0.5919,0.592,0.5943,0.5943,0.5952,0.5962,0.5958,0.5957,0.5965,0.5943,0.5954,0.5952,0.5952,0.5947,0.5942,0.5939,0.5986,0.5986,0.5987,0,0,0.5835,0.5847,0.5845,0.5853,0.5867,0.5878,0.5878,0.5894,0.5901,0.5901,0.5917,0.5919,0.5926,0.5932,0.5936,0.5914,0.5926,0.5915,0.5897,0.5891,0.5887,0.5884,0.5874,0.5871,0.5913,0.5913,0.5913,0,0.5818,0.5825,0.5843,0.5844,0.5848,0.5869,0.5866,0.5873,0.5886,0.5888,0.5897,0.5904,0.5913,0.5909,0.5903,0.5907,0.5905,0.5913,0.5887,0.5884,0.5881,0.5872,0.5868,0.5912,0.5912,0.5912,0.5912,0,0.5802,0.5805,0.5802,0.5815,0.5819,0.5818,0.5834,0.5836,0.5846,0.5856,0.5854,0.5866,0.5872,0.5872,0.5882,0.5868,0.5872,0.5883,0.5898,0.5875,0.5866,0.5863,0.591,0.591,0.5911,0.5911,0,0,0.5767,0.5788,0.5786,0.5791,0.5806,0.5808,0.5806,0.5812,0.5812,0.582,0.5818,0.5822,0.5832,0.5836,0.5847,0.5842,0.582,0.5853,0.5854,0.5845,0.5802,0.5792,0.5788,0.5828,0.5828,0.5827,0.58,0,0.5748,0.5748,0.5763,0.5758,0.5759,0.5777,0.5775,0.5783,0.5791,0.5792,0.5801,0.5803,0.5817,0.5819,0.5815,0.5824,0.5811,0.5826,0.5824,0.5823,0.5819,0.5783,0.5774,0.5748,0.5797,0.5796,0.5796,0,0.5727,0.5732,0.5727,0.5739,0.574,0.5739,0.5743,0.5745,0.5753,0.5759,0.5762,0.5774,0.5771,0.5786,0.578,0.579,0.5789,0.5793,0.5792,0.5792,0.5808,0.578,0.574,0.5735,0.5791,0.5792,0.5792,0,0.5699,0.5706,0.5703,0.5706,0.5721,0.5718,0.5724,0.5732,0.5734,0.5738,0.5738,0.5742,0.5743,0.5744,0.5756,0.5766,0.5747,0.5764,0.575,0.575,0.5745,0.5745,0.5703,0.5748,0.5748,0.5748,0.5748,0,0.5675,0.5671,0.569,0.5688,0.5682,0.5698,0.5692,0.5699,0.5705,0.5703,0.5719,0.5716,0.5733,0.5731,0.574,0.5732,0.5733,0.5736,0.5738,0.5734,0.5733,0.5733,0.5735,0.5747,0.5747,0.5747,0.5747,0,0.5644,0.5657,0.5655,0.5667,0.567,0.5665,0.5675,0.5673,0.5681,0.5678,0.5678,0.5691,0.569,0.5701,0.5703,0.5708,0.5695,0.5701,0.5693,0.5694,0.5679,0.5679,0.5634,0.5628,0.5678,0.5678,0.5677,0,0.5628,0.5625,0.5636,0.5636,0.5641,0.5641,0.5642,0.5656,0.5656,0.5663,0.5658,0.5658,0.5659,0.5655,0.5664,0.5664,0.5669,0.5653,0.5669,0.5663,0.5665,0.5665,0.5663,0.5649,0.5648,0.5648,0.5648,0,0.5597,0.5602,0.5604,0.5607,0.5608,0.561,0.5614,0.5613,0.5628,0.5627,0.5625,0.5626,0.5626,0.5624,0.5625,0.5629,0.5639,0.5642,0.5639,0.5634,0.5628,0.5628,0.5681,0.5643,0.5644,0.5644,0.5644,0.5644,0.5571,0.5568,0.5575,0.5575,0.5579,0.5581,0.5578,0.5585,0.5585,0.5586,0.5594,0.559,0.5594,0.5597,0.5599,0.5595,0.5602,0.5598,0.5596,0.5594,0.5591,0.5629,0.5595,0.5595,0.5595,0.5596,0.5596,0,0.5539,0.5544,0.5544,0.5547,0.5546,0.5557,0.5561,0.5559,0.5555,0.5559,0.5558,0.5554,0.5552,0.5559,0.5558,0.5553,0.5557,0.5551,0.5551,0.5551,0.5585,0.5588,0.5547,0.5548,0.5548,0.5548,0.5548,0.5548,0.5522,0.5516,0.5522,0.5516,0.5521,0.5517,0.5518,0.5519,0.5521,0.5516,0.5514,0.5519,0.5523,0.5521,0.5518,0.552,0.5517,0.5509,0.5513,0.5545,0.5549,0.5554,0.5556,0.5509,0.5509,0.5478,0.5478,0.5478]}]]